Zurück zum Katalog

DMSP 5D-2 F11 DEB

AktivPO
NORAD 28344·DEBRIS·🇺🇸 United States

Gestartet Nov 28, 1991 von Vandenberg Space Force Base

Loading…

Nächste Überflüge (nächste 24 Stunden)

TLE

AktuellSource: Space-Track

Epoche: Sep 12, 2026, 06:06 UTC

1 28344U 91082BH  26255.25452912  .00010264  00000-0  14135-2 0  9990
2 28344  98.5218   1.6390 0004906  81.0115 309.3846 14.78446190695805

Verfolge DMSP 5D-2 F11 DEB in Echtzeit mit AllMySat

Download on the App Store